Tracking 33831 objects as of 16-Apr-2026
HD Live streaming from Space Station
objects crossing your sky now

SIRIUS XM-10

Track SIRIUS XM-10 now!
SIRIUS XM-10 is classified as:


NORAD ID: 64290
Int'l Code: 2025-122A
Perigee: 35,784.0 km
Apogee: 35,803.8 km
Inclination: 0.0 °
Period: 1,436.1 minutes
Semi major axis: 42164 km
RCS: Unknown
Launch date: June 7, 2025
Source: United States (US)
Launch site: AIR FORCE EASTERN TEST RANGE (AFETR)
Your satellite tracking list
Your tracking list is empty




NASA's NSSDC Master Catalog

Two Line Element Set (TLE):
1 64290U 25122A   26106.22197550 -.00000010  00000-0  00000-0 0  9991
2 64290   0.0159  44.8456 0002340 331.0351 152.2351  1.00271259  3069
Source of the keplerian elements: AFSPC